,,,PA_Meas_PMT16A,,PR_Meas_QMR101_102,,RH_Meas_QMH101,,SR_Meas_QMS101,,TA_Meas_QMH101,,GenWind,,GenWind,
date,time,status,PA,status,PR,status,RH,status,SR,status,TA,status,DirAvg,status,SpdAvg,
2014-03-05, 00:00:04,VALID,1012.18,VALID,0,VALID,90.3347,VALID,0,VALID,25.5456,VALID,346,VALID,0.716016,
2014-03-05, 00:01:04,VALID,1012.2,VALID,0,VALID,89.9686,VALID,0,VALID,25.5651,VALID,346,VALID,0.0179687,
2014-03-05, 00:02:04,VALID,1012.19,VALID,0,VALID,89.4043,VALID,0,VALID,25.5846,VALID,346,VALID,0.653516,
2014-03-05, 00:03:04,VALID,1012.18,VALID,0,VALID,89.1451,VALID,0,VALID,25.5846,VALID,346,VALID,0.449609,
2014-03-05, 00:04:04,VALID,1012.17,VALID,0,VALID,89.0307,VALID,0,VALID,25.6041,VALID,346,VALID,0.296875,
2014-03-05, 00:05:04,VALID,1012.17,VALID,0,VALID,88.8477,VALID,0,VALID,25.5846,VALID,346,VALID,0.290625,
2014-03-05, 00:06:04,VALID,1012.15,VALID,0,VALID,88.8248,VALID,0,VALID,25.5846,VALID,346,VALID,0.389453,
2014-03-05, 00:07:04,VALID,1012.12,VALID,0,VALID,88.8934,VALID,0,VALID,25.5651,VALID,346,VALID,0.161328,
2014-03-05, 00:08:04,VALID,1012.13,VALID,0,VALID,88.9239,VALID,0,VALID,25.5671,VALID,346,VALID,0,
2014-03-05, 00:09:04,VALID,1012.1,VALID,0,VALID,89.0917,VALID,0,VALID,25.5456,VALID,346,VALID,0.298828,
2014-03-05, 00:10:04,VALID,1012.1,VALID,0,VALID,89.3281,VALID,0,VALID,25.5261,VALID,7,VALID,0.406641,
2014-03-05, 00:11:04,VALID,1012.1,VALID,0,VALID,89.5416,VALID,0,VALID,25.4871,VALID,7,VALID,0.513672,
2014-03-05, 00:12:04,VALID,1012.06,VALID,0,VALID,89.9839,VALID,0,VALID,25.4677,VALID,7,VALID,0.698828,
2014-03-05, 00:13:04,VALID,1012.05,VALID,0,VALID,90.6245,VALID,0,VALID,25.4482,VALID,7,VALID,0,
2014-03-05, 00:14:04,VALID,1012.04,VALID,0,VALID,91.082,VALID,0,VALID,25.4287,VALID,7,VALID,0.195313,
2014-03-05, 00:15:04,VALID,1012.04,VALID,0,VALID,91.2955,VALID,0,VALID,25.4092,VALID,6,VALID,0.0449219,
2014-03-05, 00:16:04,VALID,1012,VALID,0,VALID,91.8675,VALID,0,VALID,25.4306,VALID,6,VALID,0.478516,
2014-03-05, 00:17:04,VALID,1012.02,VALID,0,VALID,92.1267,VALID,0,VALID,25.4092,VALID,7,VALID,0.105469,
2014-03-05, 00:18:04,VALID,1011.99,VALID,0,VALID,92.02,VALID,0,VALID,25.4306,VALID,7,VALID,0.357812,
2014-03-05, 00:19:04,VALID,1011.99,VALID,0,VALID,91.9895,VALID,0,VALID,25.4287,VALID,349,VALID,1.15937,
2014-03-05, 00:20:04,VALID,1011.98,VALID,0,VALID,91.6921,VALID,0,VALID,25.4287,VALID,352,VALID,0.795703,
2014-03-05, 00:21:04,VALID,1011.94,VALID,0,VALID,91.6387,VALID,0,VALID,25.4287,VALID,348,VALID,0.432031,
2014-03-05, 00:22:04,VALID,1011.93,VALID,0,VALID,91.837,VALID,0,VALID,25.4482,VALID,348,VALID,0.510156,
2014-03-05, 00:23:04,VALID,1011.92,VALID,0,VALID,91.8598,VALID,0,VALID,25.4482,VALID,348,VALID,0.404297,
2014-03-05, 00:24:04,VALID,1011.9,VALID,0,VALID,92.0733,VALID,0,VALID,25.4287,VALID,348,VALID,0.109766,
2014-03-05, 00:25:04,VALID,1011.9,VALID,0,VALID,92.2869,VALID,0,VALID,25.4287,VALID,348,VALID,0.260547,
2014-03-05, 00:26:04,VALID,1011.85,VALID,0,VALID,92.0657,VALID,0,VALID,25.4287,VALID,348,VALID,0.664063,
2014-03-05, 00:27:04,VALID,1011.84,VALID,0,VALID,92.1496,VALID,0,VALID,25.4092,VALID,348,VALID,0.0386719,
2014-03-05, 00:28:04,VALID,1011.84,VALID,0,VALID,92.63,VALID,0,VALID,25.4287,VALID,348,VALID,0.0304688,
2014-03-05, 00:29:04,VALID,1011.82,VALID,0,VALID,92.6376,VALID,0,VALID,25.4092,VALID,348,VALID,0.479688,
2014-03-05, 00:30:04,VALID,1011.82,VALID,0,VALID,92.3631,VALID,0,VALID,25.3897,VALID,348,VALID,0.300391,
2014-03-05, 00:31:04,VALID,1011.82,VALID,0,VALID,92.2259,VALID,0,VALID,25.3897,VALID,348,VALID,0.0179687,
2014-03-05, 00:32:04,VALID,1011.83,VALID,0,VALID,92.5614,VALID,0,VALID,25.3897,VALID,348,VALID,0.394922,
2014-03-05, 00:33:04,VALID,1011.82,VALID,0,VALID,92.4241,VALID,0,VALID,25.3702,VALID,348,VALID,0.518359,
2014-03-05, 00:34:04,VALID,1011.82,VALID,0,VALID,92.6148,VALID,0,VALID,25.3897,VALID,348,VALID,0.260547,
2014-03-05, 00:35:04,VALID,1011.82,VALID,0,VALID,92.7673,VALID,0,VALID,25.3683,VALID,348,VALID,0.663672,
2014-03-05, 00:36:04,VALID,1011.78,VALID,0,VALID,93.1486,VALID,0,VALID,25.3683,VALID,348,VALID,0.272656,
2014-03-05, 00:37:04,VALID,1011.8,VALID,0,VALID,92.752,VALID,0,VALID,25.3702,VALID,348,VALID,0,
2014-03-05, 00:38:04,VALID,1011.79,VALID,0,VALID,93.0952,VALID,0,VALID,25.3702,VALID,348,VALID,0.00429688,
2014-03-05, 00:39:04,VALID,1011.8,VALID,0,VALID,93.0876,VALID,0,VALID,25.3702,VALID,348,VALID,0,
2014-03-05, 00:40:04,VALID,1011.77,VALID,0,VALID,93.4307,VALID,0,VALID,25.3702,VALID,348,VALID,0.264062,
2014-03-05, 00:41:04,VALID,1011.77,VALID,0,VALID,93.0418,VALID,0,VALID,25.3702,VALID,348,VALID,0.396484,
2014-03-05, 00:42:04,VALID,1011.77,VALID,0,VALID,93.2248,VALID,0,VALID,25.3702,VALID,348,VALID,0.028125,
2014-03-05, 00:43:04,VALID,1011.76,VALID,0,VALID,93.141,VALID,0,VALID,25.3507,VALID,348,VALID,0.34375,
2014-03-05, 00:44:04,VALID,1011.74,VALID,0,VALID,93.6442,VALID,0,VALID,25.3916,VALID,348,VALID,0,
2014-03-05, 00:45:04,VALID,1011.73,VALID,0,VALID,93.7586,VALID,0,VALID,25.3507,VALID,348,VALID,0,
2014-03-05, 00:46:04,VALID,1011.71,VALID,0,VALID,93.4612,VALID,0,VALID,25.3312,VALID,348,VALID,0.166016,
2014-03-05, 00:47:04,VALID,1011.72,VALID,0,VALID,93.4917,VALID,0,VALID,25.3526,VALID,348,VALID,0.328125,
2014-03-05, 00:48:04,VALID,1011.69,VALID,0,VALID,93.5527,VALID,0,VALID,25.3117,VALID,348,VALID,0.677734,
2014-03-05, 00:49:04,VALID,1011.67,VALID,0,VALID,93.751,VALID,0,VALID,25.3331,VALID,348,VALID,0.105859,
2014-03-05, 00:50:04,VALID,1011.65,VALID,0,VALID,94.3687,VALID,0,VALID,25.3331,VALID,348,VALID,0.146484,
2014-03-05, 00:51:04,VALID,1011.62,VALID,0,VALID,94.4678,VALID,0,VALID,25.3136,VALID,348,VALID,0.05,
2014-03-05, 00:52:04,VALID,1011.57,VALID,0,VALID,94.7042,VALID,0,VALID,25.2922,VALID,348,VALID,0.314453,
2014-03-05, 00:53:04,VALID,1011.59,VALID,0,VALID,95.2075,VALID,0,VALID,25.3136,VALID,348,VALID,0.0410156,
2014-03-05, 00:54:04,VALID,1011.57,VALID,0,VALID,95.3524,VALID,0,VALID,25.2727,VALID,348,VALID,0.413672,
2014-03-05, 00:55:04,VALID,1011.58,VALID,0,VALID,95.932,VALID,0,VALID,25.2941,VALID,348,VALID,0.116406,
2014-03-05, 00:56:04,VALID,1011.57,VALID,0,VALID,96.3895,VALID,0,VALID,25.2922,VALID,348,VALID,0,
2014-03-05, 00:57:04,VALID,1011.57,VALID,0,VALID,96.2065,VALID,0,VALID,25.2727,VALID,348,VALID,0.331641,
2014-03-05, 00:58:04,VALID,1011.54,VALID,0,VALID,96.237,VALID,0,VALID,25.2727,VALID,348,VALID,0.29375,
2014-03-05, 00:59:04,VALID,1011.53,VALID,0,VALID,96.2751,VALID,0,VALID,25.2727,VALID,348,VALID,0,
2014-03-05, 01:00:04,VALID,1011.54,VALID,0,VALID,95.8557,VALID,0,VALID,25.2727,VALID,348,VALID,0.0757812,
2014-03-05, 01:01:04,VALID,1011.52,VALID,0,VALID,96.0921,VALID,0,VALID,25.2941,VALID,348,VALID,0,
2014-03-05, 01:02:04,VALID,1011.51,VALID,0,VALID,96.603,VALID,0,VALID,25.3117,VALID,348,VALID,0,
2014-03-05, 01:03:04,VALID,1011.53,VALID,0,VALID,96.3056,VALID,0,VALID,25.2922,VALID,348,VALID,0,
2014-03-05, 01:04:04,VALID,1011.53,VALID,0,VALID,96.298,VALID,0,VALID,25.3117,VALID,348,VALID,0.0105469,
2014-03-05, 01:05:04,VALID,1011.52,VALID,0,VALID,95.3524,VALID,0,VALID,25.3117,VALID,348,VALID,0,
2014-03-05, 01:06:04,VALID,1011.52,VALID,0,VALID,95.0474,VALID,0,VALID,25.3312,VALID,348,VALID,0,
2014-03-05, 01:07:04,VALID,1011.52,VALID,0,VALID,94.8262,VALID,0,VALID,25.3312,VALID,348,VALID,0.266406,
2014-03-05, 01:08:04,VALID,1011.5,VALID,0,VALID,93.2477,VALID,0,VALID,25.3702,VALID,348,VALID,0.482422,
2014-03-05, 01:09:04,VALID,1011.55,VALID,0,VALID,93.1257,VALID,0,VALID,25.4092,VALID,348,VALID,0.167187,
2014-03-05, 01:10:04,VALID,1011.52,VALID,0,VALID,92.2259,VALID,0,VALID,25.4287,VALID,328,VALID,0.559375,
2014-03-05, 01:11:04,VALID,1011.54,VALID,0,VALID,90.8837,VALID,0,VALID,25.4482,VALID,296,VALID,0.346484,
2014-03-05, 01:12:04,VALID,1011.56,VALID,0,VALID,90.6702,VALID,0,VALID,25.4871,VALID,296,VALID,0,
2014-03-05, 01:13:04,VALID,1011.55,VALID,0,VALID,90.1974,VALID,0,VALID,25.5066,VALID,296,VALID,0,
2014-03-05, 01:14:04,VALID,1011.59,VALID,0,VALID,90.0373,VALID,0,VALID,25.5261,VALID,297,VALID,0.364062,
2014-03-05, 01:15:04,VALID,1011.61,VALID,0,VALID,90.5787,VALID,0,VALID,25.5456,VALID,297,VALID,0.00117188,
2014-03-05, 01:16:04,VALID,1011.58,VALID,0,VALID,89.6102,VALID,0,VALID,25.5261,VALID,296,VALID,0,
2014-03-05, 01:17:04,VALID,1011.57,VALID,0,VALID,89.2137,VALID,0,VALID,25.5261,VALID,297,VALID,0,
2014-03-05, 01:18:04,VALID,1011.54,VALID,0,VALID,89.2289,VALID,0,VALID,25.5047,VALID,297,VALID,0.0789063,
2014-03-05, 01:19:04,VALID,1011.56,VALID,0,VALID,89.0917,VALID,0,VALID,25.5261,VALID,297,VALID,0.220313,
2014-03-05, 01:20:04,VALID,1011.56,VALID,0,VALID,88.3977,VALID,0,VALID,25.5261,VALID,309,VALID,0.960547,
2014-03-05, 01:21:04,VALID,1011.54,VALID,0,VALID,88.2223,VALID,0,VALID,25.5261,VALID,332,VALID,0.436328,
2014-03-05, 01:22:04,VALID,1011.51,VALID,0,VALID,88.2071,VALID,0,VALID,25.5476,VALID,332,VALID,0.604688,
2014-03-05, 01:23:04,VALID,1011.52,VALID,0,VALID,88.352,VALID,0,VALID,25.5066,VALID,332,VALID,0.632813,
2014-03-05, 01:24:04,VALID,1011.49,VALID,0,VALID,88.3291,VALID,0,VALID,25.4677,VALID,332,VALID,0.957812,
2014-03-05, 01:25:04,VALID,1011.45,VALID,0,VALID,88.6265,VALID,0,VALID,25.4677,VALID,332,VALID,0.416406,
2014-03-05, 01:26:04,VALID,1011.48,VALID,0,VALID,88.7638,VALID,0,VALID,25.4482,VALID,332,VALID,0.315625,
2014-03-05, 01:27:04,VALID,1011.46,VALID,0,VALID,88.8629,VALID,0.112112,VALID,25.4482,VALID,332,VALID,0.529688,
2014-03-05, 01:28:04,VALID,1011.48,VALID,0,VALID,88.8782,VALID,0.112112,VALID,25.4267,VALID,332,VALID,0,
2014-03-05, 01:29:04,VALID,1011.46,VALID,0,VALID,89.1298,VALID,0.112112,VALID,25.4267,VALID,332,VALID,0.229687,
2014-03-05, 01:30:04,VALID,1011.46,VALID,0,VALID,89.2366,VALID,0.112112,VALID,25.4072,VALID,332,VALID,0.269141,
2014-03-05, 01:31:04,VALID,1011.46,VALID,0,VALID,89.2747,VALID,0,VALID,25.4072,VALID,332,VALID,0.3125,
2014-03-05, 01:32:04,VALID,1011.46,VALID,0,VALID,89.3662,VALID,0.112112,VALID,25.3877,VALID,332,VALID,0.00195313,
2014-03-05, 01:33:04,VALID,1011.46,VALID,0,VALID,89.2899,VALID,0.112112,VALID,25.3683,VALID,332,VALID,0.00703125,
2014-03-05, 01:34:04,VALID,1011.46,VALID,0,VALID,89.6712,VALID,0.112112,VALID,25.3488,VALID,332,VALID,0.557031,
2014-03-05, 01:35:04,VALID,1011.46,VALID,0,VALID,89.8466,VALID,0.112112,VALID,25.3488,VALID,332,VALID,0.040625,
2014-03-05, 01:36:04,VALID,1011.44,VALID,0,VALID,90.1669,VALID,0.112112,VALID,25.3293,VALID,332,VALID,0.572266,
2014-03-05, 01:37:04,VALID,1011.44,VALID,0,VALID,90.8304,VALID,0,VALID,25.3488,VALID,332,VALID,0.0917969,
2014-03-05, 01:38:04,VALID,1011.43,VALID,0,VALID,90.9066,VALID,0.112112,VALID,25.3293,VALID,332,VALID,0.601563,
2014-03-05, 01:39:04,VALID,1011.45,VALID,0,VALID,90.5711,VALID,0.112112,VALID,25.3293,VALID,332,VALID,0.422266,
2014-03-05, 01:40:04,VALID,1011.4,VALID,0,VALID,90.6092,VALID,0.112112,VALID,25.3098,VALID,332,VALID,0.550781,
2014-03-05, 01:41:04,VALID,1011.42,VALID,0,VALID,90.5558,VALID,0.112112,VALID,25.3098,VALID,332,VALID,0.673047,
2014-03-05, 01:42:04,VALID,1011.38,VALID,0,VALID,90.716,VALID,0,VALID,25.2903,VALID,332,VALID,0.530078,
2014-03-05, 01:43:04,VALID,1011.37,VALID,0,VALID,90.8685,VALID,0,VALID,25.2708,VALID,332,VALID,0.448828,
2014-03-05, 01:44:04,VALID,1011.36,VALID,0,VALID,91.2574,VALID,0,VALID,25.2727,VALID,332,VALID,0.00898437,
2014-03-05, 01:45:04,VALID,1011.39,VALID,0,VALID,91.8217,VALID,0.112112,VALID,25.2513,VALID,332,VALID,0.296484,
2014-03-05, 01:46:04,VALID,1011.39,VALID,0,VALID,92.4089,VALID,0.112112,VALID,25.2318,VALID,332,VALID,0.208203,
2014-03-05, 01:47:04,VALID,1011.38,VALID,0,VALID,92.7139,VALID,0.112112,VALID,25.2104,VALID,332,VALID,0.00351562,
2014-03-05, 01:48:04,VALID,1011.38,VALID,0,VALID,92.8054,VALID,0,VALID,25.1928,VALID,332,VALID,0.442187,
2014-03-05, 01:49:04,VALID,1011.38,VALID,0,VALID,92.9961,VALID,0.112112,VALID,25.2123,VALID,332,VALID,0.0597656,
2014-03-05, 01:50:04,VALID,1011.36,VALID,0,VALID,93.6366,VALID,0.112112,VALID,25.1928,VALID,332,VALID,0,
2014-03-05, 01:51:04,VALID,1011.39,VALID,0,VALID,93.9722,VALID,0,VALID,25.1928,VALID,332,VALID,0.351172,
2014-03-05, 01:52:04,VALID,1011.38,VALID,0,VALID,94.3382,VALID,0.112112,VALID,25.1733,VALID,332,VALID,0.557813,
2014-03-05, 01:53:04,VALID,1011.34,VALID,0,VALID,94.8339,VALID,0.112112,VALID,25.1733,VALID,332,VALID,0.512109,
2014-03-05, 01:54:04,VALID,1011.35,VALID,0,VALID,95.0931,VALID,0,VALID,25.1733,VALID,332,VALID,0.341797,
2014-03-05, 01:55:04,VALID,1011.35,VALID,0,VALID,95.1389,VALID,0.112112,VALID,25.1733,VALID,332,VALID,0.00585938,
2014-03-05, 01:56:04,VALID,1011.33,VALID,0,VALID,95.3143,VALID,0.112112,VALID,25.1733,VALID,332,VALID,0,
2014-03-05, 01:57:04,VALID,1011.33,VALID,0,VALID,95.7718,VALID,0,VALID,25.1538,VALID,332,VALID,0.00078125,
2014-03-05, 01:58:04,VALID,1011.35,VALID,0,VALID,95.9549,VALID,0,VALID,25.1752,VALID,332,VALID,0,
2014-03-05, 01:59:04,VALID,1011.33,VALID,0,VALID,95.9625,VALID,0,VALID,25.1148,VALID,332,VALID,0,
2014-03-05, 02:00:04,VALID,1011.31,VALID,0,VALID,96.0006,VALID,0,VALID,25.1362,VALID,332,VALID,0,
2014-03-05, 02:01:04,VALID,1011.31,VALID,0,VALID,96.5954,VALID,0,VALID,25.1362,VALID,332,VALID,0,
2014-03-05, 02:02:04,VALID,1011.31,VALID,0,VALID,96.8089,VALID,0,VALID,25.1167,VALID,332,VALID,0,
2014-03-05, 02:03:04,VALID,1011.31,VALID,0,VALID,97.0835,VALID,0,VALID,25.0954,VALID,332,VALID,0,
2014-03-05, 02:04:04,VALID,1011.33,VALID,0,VALID,97.6173,VALID,0,VALID,25.1167,VALID,332,VALID,0,
2014-03-05, 02:05:04,VALID,1011.34,VALID,0,VALID,97.7927,VALID,0,VALID,25.0778,VALID,332,VALID,0,
2014-03-05, 02:06:04,VALID,1011.32,VALID,0,VALID,97.9299,VALID,0,VALID,25.0583,VALID,332,VALID,0,
2014-03-05, 02:07:04,VALID,1011.36,VALID,0,VALID,98.2426,VALID,0,VALID,25.0583,VALID,332,VALID,0.00585938,
2014-03-05, 02:08:04,VALID,1011.35,VALID,0,VALID,98.4103,VALID,0,VALID,25.0388,VALID,332,VALID,0.00195313,
2014-03-05, 02:09:04,VALID,1011.39,VALID,0,VALID,98.4866,VALID,0,VALID,25.0583,VALID,332,VALID,0.121484,
2014-03-05, 02:10:04,VALID,1011.38,VALID,0,VALID,98.5247,VALID,0,VALID,25.0174,VALID,332,VALID,0,
2014-03-05, 02:11:04,VALID,1011.43,VALID,0,VALID,98.5095,VALID,0,VALID,25.0388,VALID,332,VALID,0.0304688,
2014-03-05, 02:12:04,VALID,1011.39,VALID,0,VALID,98.9289,VALID,0,VALID,25.0369,VALID,332,VALID,0.00742187,
2014-03-05, 02:13:04,VALID,1011.42,VALID,0,VALID,99.4551,VALID,0,VALID,25.0778,VALID,332,VALID,0,
2014-03-05, 02:14:04,VALID,1011.41,VALID,0,VALID,99.2644,VALID,0,VALID,25.0583,VALID,332,VALID,0,
2014-03-05, 02:15:04,VALID,1011.38,VALID,0,VALID,99.1348,VALID,0,VALID,25.0973,VALID,332,VALID,0.147656,
2014-03-05, 02:16:04,VALID,1011.38,VALID,0,VALID,98.7001,VALID,0,VALID,25.1167,VALID,332,VALID,0.0914062,
2014-03-05, 02:17:04,VALID,1011.37,VALID,0,VALID,98.1053,VALID,0,VALID,25.1557,VALID,332,VALID,0.348828,
2014-03-05, 02:18:04,VALID,1011.34,VALID,0,VALID,97.1445,VALID,0,VALID,25.1557,VALID,332,VALID,0.157031,
2014-03-05, 02:19:04,VALID,1011.32,VALID,0,VALID,96.054,VALID,0,VALID,25.1947,VALID,332,VALID,0,
2014-03-05, 02:20:04,VALID,1011.32,VALID,0,VALID,94.9788,VALID,0,VALID,25.1947,VALID,332,VALID,0,
2014-03-05, 02:21:04,VALID,1011.33,VALID,0,VALID,94.3839,VALID,0,VALID,25.2142,VALID,332,VALID,0,
2014-03-05, 02:22:04,VALID,1011.34,VALID,0,VALID,94.4297,VALID,0,VALID,25.2142,VALID,332,VALID,0,
2014-03-05, 02:23:04,VALID,1011.34,VALID,0,VALID,93.6824,VALID,0,VALID,25.2123,VALID,332,VALID,0,
2014-03-05, 02:24:04,VALID,1011.36,VALID,0,VALID,92.569,VALID,0,VALID,25.2337,VALID,332,VALID,0.646094,
2014-03-05, 02:25:04,VALID,1011.35,VALID,0,VALID,91.7378,VALID,0,VALID,25.2337,VALID,332,VALID,0.467187,
2014-03-05, 02:26:04,VALID,1011.35,VALID,0,VALID,91.1811,VALID,0,VALID,25.2532,VALID,332,VALID,0.477734,
2014-03-05, 02:27:04,VALID,1011.36,VALID,0,VALID,90.1135,VALID,0,VALID,25.2532,VALID,332,VALID,0.751953,
2014-03-05, 02:28:04,VALID,1011.32,VALID,0,VALID,90.0754,VALID,0,VALID,25.2727,VALID,332,VALID,0.177734,
2014-03-05, 02:29:04,VALID,1011.32,VALID,0,VALID,90.3347,VALID,0,VALID,25.2941,VALID,332,VALID,0,
2014-03-05, 02:30:04,VALID,1011.32,VALID,0,VALID,90.4414,VALID,0,VALID,25.3117,VALID,332,VALID,0,
2014-03-05, 02:31:04,VALID,1011.29,VALID,0,VALID,90.3728,VALID,0,VALID,25.3117,VALID,332,VALID,0,
2014-03-05, 02:32:04,VALID,1011.27,VALID,0,VALID,90.8609,VALID,0,VALID,25.3312,VALID,332,VALID,0,
2014-03-05, 02:33:04,VALID,1011.24,VALID,0,VALID,90.6245,VALID,0,VALID,25.3117,VALID,332,VALID,0,
2014-03-05, 02:34:04,VALID,1011.23,VALID,0,VALID,89.6789,VALID,0,VALID,25.2727,VALID,332,VALID,0,
2014-03-05, 02:35:04,VALID,1011.25,VALID,0,VALID,89.3967,VALID,0,VALID,25.2532,VALID,332,VALID,0,
2014-03-05, 02:36:04,VALID,1011.25,VALID,0,VALID,89.9991,VALID,0,VALID,25.2532,VALID,332,VALID,0,
2014-03-05, 02:37:04,VALID,1011.22,VALID,0,VALID,90.6702,VALID,0,VALID,25.2142,VALID,332,VALID,0,
2014-03-05, 02:38:04,VALID,1011.24,VALID,0,VALID,91.4175,VALID,0,VALID,25.2142,VALID,332,VALID,0,
2014-03-05, 02:39:04,VALID,1011.21,VALID,0,VALID,92.7749,VALID,0,VALID,25.1752,VALID,332,VALID,0,
2014-03-05, 02:40:04,VALID,1011.18,VALID,0,VALID,93.6595,VALID,0,VALID,25.1148,VALID,332,VALID,0,
2014-03-05, 02:41:04,VALID,1011.2,VALID,0,VALID,94.75,VALID,0,VALID,25.1167,VALID,332,VALID,0,
2014-03-05, 02:42:04,VALID,1011.19,VALID,0,VALID,94.872,VALID,0,VALID,25.0973,VALID,332,VALID,0.342969,
2014-03-05, 02:43:04,VALID,1011.19,VALID,0,VALID,95.2075,VALID,0,VALID,25.0778,VALID,332,VALID,0,
2014-03-05, 02:44:04,VALID,1011.2,VALID,0,VALID,95.4592,VALID,0,VALID,25.0583,VALID,332,VALID,0,
2014-03-05, 02:45:04,VALID,1011.2,VALID,0,VALID,96.0235,VALID,0,VALID,25.0193,VALID,332,VALID,0.191406,
2014-03-05, 02:46:04,VALID,1011.2,VALID,0,VALID,96.481,VALID,0,VALID,24.9998,VALID,332,VALID,0.419531,
2014-03-05, 02:47:04,VALID,1011.21,VALID,0,VALID,97.1292,VALID,0,VALID,24.9998,VALID,332,VALID,0,
2014-03-05, 02:48:04,VALID,1011.27,VALID,0,VALID,97.8842,VALID,0,VALID,24.9803,VALID,332,VALID,0,
2014-03-05, 02:49:04,VALID,1011.25,VALID,0,VALID,98.3188,VALID,0,VALID,24.9803,VALID,332,VALID,0.302344,
2014-03-05, 02:50:04,VALID,1011.29,VALID,0,VALID,98.5095,VALID,0,VALID,24.9803,VALID,332,VALID,0.199609,
2014-03-05, 02:51:04,VALID,1011.33,VALID,0,VALID,98.4485,VALID,0,VALID,24.9394,VALID,332,VALID,0,
2014-03-05, 02:52:04,VALID,1011.29,VALID,0,VALID,98.6849,VALID,0,VALID,24.9608,VALID,332,VALID,0.00078125,
2014-03-05, 02:53:04,VALID,1011.31,VALID,0,VALID,98.9442,VALID,0,VALID,24.9608,VALID,332,VALID,0.462891,
2014-03-05, 02:54:04,VALID,1011.32,VALID,0,VALID,99.2492,VALID,0,VALID,24.9394,VALID,332,VALID,0.262109,
2014-03-05, 02:55:04,VALID,1011.28,VALID,0,VALID,99.3636,VALID,0,VALID,24.9608,VALID,332,VALID,0.025,
2014-03-05, 02:56:04,VALID,1011.32,VALID,0,VALID,99.6305,VALID,0,VALID,24.9413,VALID,332,VALID,0,
2014-03-05, 02:57:04,VALID,1011.31,VALID,0,VALID,99.9889,VALID,0,VALID,24.9218,VALID,332,VALID,0.0746094,
2014-03-05, 02:58:04,VALID,1011.34,VALID,0,VALID,100.065,VALID,0,VALID,24.9218,VALID,332,VALID,0.0601562,
2014-03-05, 02:59:04,VALID,1011.34,VALID,0,VALID,100.042,VALID,0,VALID,24.9218,VALID,332,VALID,0.107813,
2014-03-05, 03:00:04,VALID,1011.33,VALID,0,VALID,99.9736,VALID,0,VALID,24.9199,VALID,332,VALID,0.419141,
2014-03-05, 03:01:04,VALID,1011.35,VALID,0,VALID,99.8669,VALID,0,VALID,24.9218,VALID,332,VALID,0.519531,
2014-03-05, 03:02:04,VALID,1011.33,VALID,0,VALID,99.905,VALID,0,VALID,24.9023,VALID,332,VALID,0.107422,
2014-03-05, 03:03:04,VALID,1011.33,VALID,0,VALID,100.073,VALID,0,VALID,24.9023,VALID,332,VALID,0.114844,
2014-03-05, 03:04:04,VALID,1011.3,VALID,0,VALID,100.294,VALID,0,VALID,24.9023,VALID,332,VALID,0,
2014-03-05, 03:05:04,VALID,1011.3,VALID,0,VALID,100.5,VALID,0,VALID,24.9023,VALID,332,VALID,0.0675781,
2014-03-05, 03:06:04,VALID,1011.32,VALID,0,VALID,100.889,VALID,0,VALID,24.9023,VALID,332,VALID,0,
2014-03-05, 03:07:04,VALID,1011.29,VALID,0,VALID,100.843,VALID,0,VALID,24.9023,VALID,332,VALID,0.105469,
2014-03-05, 03:08:04,VALID,1011.26,VALID,0,VALID,100.889,VALID,0,VALID,24.8828,VALID,332,VALID,0,
2014-03-05, 03:09:04,VALID,1011.27,VALID,0,VALID,100.889,VALID,0,VALID,24.842,VALID,332,VALID,0,
2014-03-05, 03:10:04,VALID,1011.26,VALID,0,VALID,100.957,VALID,0,VALID,24.8633,VALID,332,VALID,0.333203,
2014-03-05, 03:11:04,VALID,1011.24,VALID,0,VALID,101.011,VALID,0,VALID,24.8633,VALID,332,VALID,0.272656,
2014-03-05, 03:12:04,VALID,1011.25,VALID,0,VALID,101.011,VALID,0,VALID,24.8225,VALID,332,VALID,0.168359,
2014-03-05, 03:13:04,VALID,1011.24,VALID,0,VALID,101.331,VALID,0.112112,VALID,24.8438,VALID,332,VALID,0.00273437,
2014-03-05, 03:14:04,VALID,1011.25,VALID,0,VALID,101.43,VALID,0,VALID,24.8438,VALID,332,VALID,0.302344,
2014-03-05, 03:15:04,VALID,1011.26,VALID,0,VALID,101.773,VALID,0,VALID,24.8244,VALID,332,VALID,0.000390625,
2014-03-05, 03:16:04,VALID,1011.28,VALID,0,VALID,102.048,VALID,0,VALID,24.8049,VALID,332,VALID,0,
2014-03-05, 03:17:04,VALID,1011.28,VALID,0,VALID,102.246,VALID,0,VALID,24.8049,VALID,332,VALID,0,
2014-03-05, 03:18:04,VALID,1011.26,VALID,0,VALID,102.49,VALID,0,VALID,24.7854,VALID,332,VALID,0,
2014-03-05, 03:19:04,VALID,1011.27,VALID,0,VALID,102.711,VALID,0,VALID,24.7659,VALID,332,VALID,0,
2014-03-05, 03:20:04,VALID,1011.27,VALID,0,VALID,102.826,VALID,0,VALID,24.7659,VALID,332,VALID,0.0203125,
2014-03-05, 03:21:04,VALID,1011.26,VALID,0,VALID,102.887,VALID,0,VALID,24.7464,VALID,332,VALID,0,
2014-03-05, 03:22:04,VALID,1011.29,VALID,0,VALID,103.024,VALID,0,VALID,24.7464,VALID,332,VALID,0,
2014-03-05, 03:23:04,VALID,1011.28,VALID,0,VALID,103.146,VALID,0,VALID,24.7269,VALID,332,VALID,0.203906,
2014-03-05, 03:24:04,VALID,1011.3,VALID,0,VALID,103.146,VALID,0,VALID,24.7074,VALID,332,VALID,0.286719,
2014-03-05, 03:25:04,VALID,1011.33,VALID,0,VALID,103.23,VALID,0,VALID,24.7074,VALID,332,VALID,0,
2014-03-05, 03:26:04,VALID,1011.32,VALID,0,VALID,103.306,VALID,0,VALID,24.7074,VALID,332,VALID,0,
2014-03-05, 03:27:04,VALID,1011.3,VALID,0,VALID,103.321,VALID,0,VALID,24.6879,VALID,332,VALID,0,
2014-03-05, 03:28:04,VALID,1011.28,VALID,0,VALID,103.497,VALID,0,VALID,24.6684,VALID,332,VALID,0,
2014-03-05, 03:29:04,VALID,1011.27,VALID,0,VALID,103.619,VALID,0,VALID,24.6489,VALID,332,VALID,0.386328,
2014-03-05, 03:30:04,VALID,1011.23,VALID,0,VALID,103.787,VALID,0,VALID,24.6294,VALID,332,VALID,0.231641,
2014-03-05, 03:31:04,VALID,1011.23,VALID,0,VALID,104,VALID,0,VALID,24.6099,VALID,332,VALID,0.0535156,
2014-03-05, 03:32:04,VALID,1011.25,VALID,0,VALID,104,VALID,0.112112,VALID,24.5691,VALID,332,VALID,0.00117188,
2014-03-05, 03:33:04,VALID,1011.24,VALID,0,VALID,104,VALID,0,VALID,24.5905,VALID,332,VALID,0,
2014-03-05, 03:34:04,VALID,1011.27,VALID,0,VALID,104,VALID,0.112112,VALID,24.571,VALID,332,VALID,0,
2014-03-05, 03:35:04,VALID,1011.28,VALID,0,VALID,104,VALID,0,VALID,24.532,VALID,332,VALID,0,
2014-03-05, 03:36:04,VALID,1011.29,VALID,0,VALID,104,VALID,0,VALID,24.532,VALID,332,VALID,0,
2014-03-05, 03:37:04,VALID,1011.28,VALID,0,VALID,104,VALID,0,VALID,24.5125,VALID,332,VALID,0.0886719,
2014-03-05, 03:38:04,VALID,1011.28,VALID,0,VALID,104,VALID,0,VALID,24.493,VALID,332,VALID,0.075,
2014-03-05, 03:39:04,VALID,1011.28,VALID,0,VALID,104,VALID,0,VALID,24.4735,VALID,332,VALID,0,
2014-03-05, 03:40:04,VALID,1011.3,VALID,0,VALID,104,VALID,0,VALID,24.454,VALID,332,VALID,0,
2014-03-05, 03:41:04,VALID,1011.29,VALID,0,VALID,104,VALID,0,VALID,24.4345,VALID,332,VALID,0,
2014-03-05, 03:42:04,VALID,1011.27,VALID,0,VALID,104,VALID,0,VALID,24.4345,VALID,332,VALID,0,
2014-03-05, 03:43:04,VALID,1011.29,VALID,0,VALID,104,VALID,0,VALID,24.3742,VALID,332,VALID,0,
2014-03-05, 03:44:04,VALID,1011.31,VALID,0,VALID,104,VALID,0,VALID,24.3956,VALID,332,VALID,0,
2014-03-05, 03:45:04,VALID,1011.33,VALID,0,VALID,104,VALID,0,VALID,24.3761,VALID,332,VALID,0,
2014-03-05, 03:46:04,VALID,1011.34,VALID,0,VALID,104,VALID,0,VALID,24.3566,VALID,332,VALID,0,
2014-03-05, 03:47:04,VALID,1011.34,VALID,0,VALID,104,VALID,0,VALID,24.3371,VALID,332,VALID,0,
2014-03-05, 03:48:04,VALID,1011.35,VALID,0,VALID,104,VALID,0,VALID,24.3371,VALID,332,VALID,0,